DW6619 Weather Reports


Display with metric or nautical units.
time (UTC)temp
F
wind
direction
speed
MPH
gust
MPH
rain 1hr
in
rain 24hr
in
rain mn
in
humidity
%
barometer
mb
20260506214517 70 200 0.0 0.0 0.00 0.21 0.21 78 1008.0
20260506213033 70 228 1.0 6.0 0.00 0.21 0.21 78 1008.0
20260506211520 70 184 0.0 0.0 0.00 0.21 0.21 78 1008.0
20260506210015 70 188 0.0 9.0 0.00 0.21 0.21 79 1007.9
20260506204548 70 266 0.0 1.0 0.00 0.21 0.21 78 1007.8
20260506203047 70 177 0.0 7.0 0.00 0.21 0.21 78 1007.6
20260506201541 70 215 0.0 11.0 0.00 0.21 0.21 79 1007.7
20260506200033 70 252 0.0 0.0 0.00 0.21 0.21 80 1007.7
20260506194531 69 217 0.0 0.0 0.00 0.21 0.21 80 1007.9
20260506193020 69 190 0.0 3.0 0.00 0.21 0.21 82 1007.9
20260506191519 68 194 0.0 4.0 0.00 0.21 0.21 82 1008.0
20260506190011 68 233 0.0 0.0 0.00 0.21 0.21 83 1008.4
20260506184523 67 191 1.0 12.0 0.00 0.21 0.21 82 1008.6
20260506183041 67 219 0.0 11.0 0.00 0.21 0.21 82 1008.6
20260506181512 67 251 0.0 9.0 0.00 0.21 0.21 83 1008.5
20260506180027 66 246 2.0 9.0 0.00 0.21 0.21 84 1008.8
20260506174521 66 207 0.0 6.0 0.00 0.21 0.21 84 1008.8
20260506173018 65 188 0.0 0.0 0.00 0.21 0.21 84 1008.8
20260506171521 65 150 1.0 8.0 0.00 0.21 0.21 85 1008.9
20260506170037 65 227 2.0 10.0 0.00 0.21 0.21 85 1009.1
20260506164511 65 157 2.0 13.0 0.00 0.21 0.21 86 1009.1
20260506163024 64 165 4.0 12.0 0.00 0.21 0.21 86 1009.2
20260506161517 63 196 1.0 11.0 0.01 0.21 0.21 86 1009.2
20260506160010 62 143 1.0 9.0 0.01 0.21 0.21 86 1009.4
20260506154542 62 217 0.0 8.0 0.02 0.21 0.21 85 1009.4
20260506153017 62 191 0.0 5.0 0.04 0.21 0.21 84 1009.4
20260506151534 61 64 0.0 8.0 0.04 0.20 0.20 84 1009.5
20260506150011 61 196 1.0 11.0 0.04 0.20 0.20 85 1009.8
20260506144509 61 205 0.0 1.0 0.04 0.19 0.19 85 1010.0
20260506143023 61 184 0.0 0.0 0.04 0.17 0.17 85 1010.1
20260506141521 61 355 0.0 7.0 0.08 0.16 0.16 85 1010.2
20260506140035 60 146 0.0 1.0 0.11 0.16 0.16 85 1010.1
20260506134531 60 232 0.0 0.0 0.13 0.15 0.15 86 1010.0
20260506133017 61 175 0.0 0.0 0.11 0.13 0.13 86 1010.2
20260506131514 61 197 0.0 0.0 0.06 0.08 0.08 86 1010.5
20260506130012 61 195 0.0 0.0 0.03 0.05 0.05 86 1010.6
20260506124529 62 217 0.0 0.0 0.02 0.02 0.02 86 1010.3
20260506123051 62 221 0.0 0.0 0.02 0.02 0.02 86 1009.9
20260506121518 62 174 0.0 0.0 0.02 0.02 0.02 85 1009.9
20260506120042 63 186 0.0 5.0 0.02 0.02 0.02 83 1010.2
20260506114532 63 182 0.0 1.0 0.00 0.00 0.00 81 1010.4
20260506113030 64 241 0.0 8.0 0.00 0.00 0.00 79 1010.1
20260506111521 64 168 0.0 0.0 0.00 0.00 0.00 78 1010.0
20260506110019 64 170 0.0 7.0 0.00 0.00 0.00 78 1009.7
20260506104512 63 209 0.0 6.0 0.00 0.00 0.00 79 1009.6
20260506103027 63 186 0.0 8.0 0.00 0.00 0.00 80 1009.5
20260506101524 63 215 0.0 3.0 0.00 0.00 0.00 80 1009.5
20260506100021 63 229 0.0 6.0 0.00 0.00 0.00 80 1009.6
20260506094520 63 286 0.0 5.0 0.00 0.00 0.00 79 1009.4
20260506093010 66 185 0.0 8.0 0.00 0.00 0.00 73 1009.4
20260506091520 66 219 0.0 0.0 0.00 0.00 0.00 70 1009.5
20260506090020 66 211 0.0 0.0 0.00 0.00 0.00 69 1009.7
20260506084516 66 231 0.0 0.0 0.00 0.00 0.00 69 1009.6
20260506083033 67 136 0.0 0.0 0.00 0.00 0.00 67 1009.8
20260506081509 67 200 0.0 8.0 0.00 0.00 0.00 67 1009.7
20260506073012 68 190 0.0 3.0 0.00 0.00 0.00 65 1009.6
20260506071510 68 244 0.0 9.0 0.00 0.00 0.00 64 1009.6
20260506061522 69 192 0.0 0.0 0.00 0.00 0.00 61 1010.2
20260506044520 71 253 1.0 8.0 0.00 0.00 0.00 56 1010.7
20260506043030 72 135 0.0 0.0 0.00 0.00 0.00 55 1010.5
20260506041524 72 214 0.0 0.0 0.00 0.00 0.00 55 1010.5
20260506040020 72 268 0.0 0.0 0.00 0.00 0.00 54 1010.6
20260506034518 72 196 0.0 0.0 0.00 0.00 0.00 53 1010.5
20260506033016 72 218 0.0 0.0 0.00 0.00 0.00 53 1010.4
20260506031512 72 208 0.0 0.0 0.00 0.00 0.00 52 1010.5
20260506030024 72 202 0.0 0.0 0.00 0.00 0.00 51 1010.4
20260506024522 72 199 0.0 0.0 0.00 0.00 0.00 51 1010.5
20260506023015 72 165 0.0 0.0 0.00 0.00 0.00 49 1010.5
20260506021513 72 111 0.0 0.0 0.00 0.00 0.00 48 1010.6
20260506020009 72 205 0.0 0.0 0.00 0.00 0.00 47 1010.6
20260506014554 73 211 0.0 0.0 0.00 0.00 0.00 45 1010.4
20260506013025 73 214 0.0 0.0 0.00 0.00 0.00 44 1010.4
20260506011522 74 107 0.0 6.0 0.00 0.00 0.00 43 1010.2
20260506010021 74 176 0.0 4.0 0.00 0.00 0.00 42 1010.1
20260506004523 75 205 0.0 0.0 0.00 0.00 0.00 40 1009.8
20260506003021 76 213 0.0 0.0 0.00 0.00 0.00 39 1009.6
20260506001539 76 227 0.0 1.0 0.00 0.00 0.00 38 1009.6
20260506000014 77 224 0.0 0.0 0.00 0.00 0.00 35 1009.4
20260505234514 78 246 0.0 0.0 0.00 0.00 0.00 33 1009.3
20260505233031 79 184 0.0 10.0 0.00 0.00 0.00 32 1009.3
20260505231525 80 183 1.0 16.0 0.00 0.00 0.00 32 1009.3
20260505230015 80 202 0.0 0.0 0.00 0.00 0.00 33 1009.3
20260505224513 80 172 0.0 9.0 0.00 0.00 0.00 32 1009.2
20260505223011 81 116 0.0 9.0 0.00 0.00 0.00 32 1009.2
20260505221509 81 290 0.0 13.0 0.00 0.00 0.00 32 1009.3
20260505220025 82 289 4.0 14.0 0.00 0.00 0.00 30 1009.2